DW4008 Weather Reports


time (UTC)temp
C
wind
direction
speed
KPH
gust
KPH
rain 1hr
cm
rain 24hr
cm
rain mn
cm
humidity
%
barometer
mb
20260506174819 1 115 0.0 0.0 0.00 0.00 0.00 81 1020.4
20260506173336 0 110 0.0 0.0 0.00 0.00 0.00 78 1020.5
20260506171807 1 92 0.0 0.0 0.00 0.00 0.00 73 1020.4
20260506170324 2 92 0.0 0.0 0.00 0.00 0.00 76 1020.4
20260506164820 2 92 0.0 0.0 0.00 0.00 0.00 81 1020.3
20260506163326 1 92 0.0 0.0 0.00 0.00 0.00 75 1020.2
20260506161842 1 92 0.0 0.0 0.00 0.00 0.00 82 1020.0
20260506160326 0 92 0.0 0.0 0.00 0.00 0.00 82 1020.1
20260506154809 0 92 0.0 0.0 0.00 0.00 0.00 84 1020.1
20260506153357 0 91 0.0 0.0 0.00 0.00 0.00 85 1019.9
20260506151812 -1 91 0.0 0.0 0.00 0.00 0.00 85 1019.8
20260506150314 -1 91 0.0 0.0 0.00 0.00 0.00 88 1019.5
20260506144835 -1 91 0.0 0.0 0.00 0.00 0.00 89 1019.6
20260506143324 -1 91 0.0 0.0 0.00 0.00 0.00 88 1019.7
20260506141819 -1 91 0.0 0.0 0.00 0.00 0.00 92 1019.7
20260506140324 -2 91 0.0 0.0 0.00 0.00 0.00 92 1019.5
20260506134821 -2 91 0.0 0.0 0.00 0.00 0.00 93 1019.4
20260506133317 -2 91 0.0 0.0 0.00 0.00 0.00 93 1019.5
20260506131824 -3 91 0.0 0.0 0.00 0.00 0.00 93 1019.2
20260506130322 -3 91 0.0 0.0 0.00 0.00 0.00 94 1018.9
20260506124824 -3 91 0.0 0.0 0.00 0.00 0.00 93 1018.7
20260506123318 -3 91 0.0 0.0 0.00 0.00 0.00 94 1018.6
20260506121819 -3 91 0.0 0.0 0.00 0.00 0.00 93 1018.2
20260506120321 -3 91 0.0 0.0 0.00 0.00 0.00 93 1018.1
20260506114828 -3 91 0.0 0.0 0.00 0.00 0.00 93 1018.0
20260506113347 -3 91 0.0 0.0 0.00 0.00 0.00 93 1017.8
20260506111815 -3 98 0.0 0.0 0.00 0.00 0.00 93 1017.5
20260506110310 -3 98 0.0 0.0 0.00 0.00 0.00 93 1017.3
20260506104828 -3 98 0.0 0.0 0.00 0.00 0.00 94 1017.2
20260506103319 -3 99 0.0 0.0 0.00 0.00 0.00 94 1016.9
20260506101822 -3 127 0.0 0.0 0.00 0.00 0.00 95 1017.5
20260506100307 -3 127 0.0 0.0 0.00 0.00 0.00 95 1017.6
20260506094808 -3 128 0.0 0.0 0.00 0.00 0.00 95 1017.4
20260506093323 -3 128 0.0 0.0 0.00 0.00 0.00 95 1017.7
20260506091813 -3 128 0.0 0.0 0.00 0.00 0.00 95 1017.5
20260506090323 -3 128 0.0 0.0 0.00 0.00 0.00 95 1017.5
20260506084821 -3 128 0.0 0.0 0.00 0.00 0.00 95 1017.3
20260506083317 -3 128 0.0 0.0 0.00 0.00 0.00 95 1017.5
20260506081846 -3 128 0.0 0.0 0.00 0.00 0.00 95 1017.5
20260506080328 -3 127 0.0 0.0 0.00 0.00 0.00 95 1017.5
20260506073325 -2 127 0.0 0.0 0.00 0.00 0.00 95 1017.6
20260506071840 -2 126 0.0 0.0 0.00 0.00 0.00 95 1017.4
20260506070329 -2 127 0.0 0.0 0.00 0.00 0.00 95 1017.2
20260506061812 -2 127 0.0 0.0 0.00 0.00 0.00 95 1018.0
20260506060325 -2 127 0.0 0.0 0.00 0.00 0.00 95 1017.7
20260506050320 -2 127 0.0 0.0 0.00 0.00 0.00 95 1017.0
20260506044836 -2 127 0.0 0.0 0.00 0.00 0.00 95 1016.6
20260506043354 -2 127 0.0 0.0 0.00 0.00 0.00 95 1016.6
20260506041817 -2 134 0.0 0.0 0.00 0.00 0.00 95 1016.6
20260506040324 -2 117 0.0 0.0 0.00 0.00 0.00 95 1016.5
20260506034818 -1 92 0.0 0.0 0.00 0.00 0.00 95 1016.1
20260506033329 -1 169 0.0 0.0 0.00 0.00 0.00 95 1016.5
20260506031838 -1 169 0.0 0.0 0.00 0.00 0.00 95 1016.2
20260506030322 -1 169 0.0 0.0 0.00 0.00 0.00 95 1016.0
20260506024826 -1 169 0.0 0.0 0.00 0.00 0.00 95 1015.5
20260506023326 -1 169 0.0 0.0 0.00 0.00 0.00 95 1015.2
20260506021814 -1 169 0.0 0.0 0.00 0.00 0.00 95 1014.9
20260506020332 -1 169 0.0 0.0 0.00 0.00 0.00 94 1015.1
20260506014826 -1 169 0.0 0.0 0.00 0.00 0.00 94 1014.9
20260506013318 -1 169 0.0 0.0 0.00 0.00 0.00 94 1014.6
20260506011817 -1 169 0.0 0.0 0.00 0.00 0.00 94 1014.4
20260506010316 -1 169 0.0 0.0 0.00 0.00 0.00 94 1014.3
20260506004835 -1 169 0.0 0.0 0.00 0.00 0.00 94 1014.1
20260506003329 -1 169 0.0 0.0 0.00 0.00 0.00 94 1014.0
20260506001832 -1 169 0.0 0.0 0.00 0.00 0.00 94 1013.9
20260506000322 -1 169 0.0 0.0 0.00 0.00 0.00 93 1014.2
20260505234827 -1 169 0.0 0.0 0.00 0.00 0.00 93 1014.3
20260505233340 -1 169 0.0 0.0 0.00 0.00 0.00 93 1014.3
20260505231829 -1 169 0.0 0.0 0.00 0.00 0.00 93 1014.2
20260505230314 0 169 0.0 0.0 0.00 0.00 0.00 93 1014.1
20260505224828 0 169 0.0 0.0 0.00 0.00 0.00 93 1013.9
20260505223347 0 169 0.0 0.0 0.00 0.00 0.00 93 1013.8
20260505221816 0 169 0.0 0.0 0.00 0.00 0.00 93 1014.1
20260505220317 0 169 0.0 0.0 0.00 0.00 0.00 94 1014.0
20260505214828 0 169 0.0 0.0 0.00 0.00 0.00 94 1013.9
20260505213335 0 169 0.0 0.0 0.00 0.00 0.00 94 1013.8
20260505211818 -1 169 0.0 0.0 0.00 0.00 0.00 94 1013.8
20260505210333 -1 169 0.0 0.0 0.00 0.00 0.00 94 1013.7
20260505204833 -1 169 0.0 0.0 0.00 0.00 0.00 94 1014.3
20260505203321 0 169 0.0 0.0 0.00 0.00 0.00 93 1014.5
20260505201834 0 169 0.0 0.0 0.00 0.00 0.00 94 1014.5
20260505200313 0 142 0.0 0.0 0.00 0.00 0.00 94 1014.3
20260505194830 0 135 0.0 0.0 0.00 0.00 0.00 94 1014.2
20260505193320 -1 139 0.0 0.0 0.00 0.00 0.00 94 1014.1
20260505191830 -1 138 1.6 0.0 0.00 0.00 0.00 94 1014.9
20260505190318 -1 136 3.2 0.0 0.00 0.00 0.00 94 1014.9
20260505184815 -1 140 3.2 0.0 0.00 0.00 0.00 94 1014.7
20260505183316 -1 141 4.8 0.0 0.00 0.00 0.00 94 1014.7
20260505181821 -1 140 4.8 0.0 0.00 0.00 0.00 94 1015.1
20260505180325 -1 139 3.2 0.0 0.00 0.00 0.00 94 1015.0